TimeCDT,TemperatureF,Dew PointF,Humidity,Sea Level PressureIn,VisibilityMPH,Wind Direction,Wind SpeedMPH,Gust SpeedMPH,PrecipitationIn,Events,Conditions,WindDirDegrees,DateUTC
12:13 AM,27.0,16.7,65,30.25,10.0,WNW,8.1,-,N/A,,Clear,290,2013-04-02 05:13:00
12:32 AM,26.6,16.7,66,30.25,10.0,WNW,5.8,-,N/A,,Clear,300,2013-04-02 05:32:00
12:52 AM,26.2,16.7,67,30.25,10.0,WNW,8.1,-,N/A,,Clear,290,2013-04-02 05:52:00
1:13 AM,25.7,16.7,69,30.26,10.0,WNW,8.1,-,N/A,,Clear,290,2013-04-02 06:13:00
1:32 AM,25.7,16.7,69,30.26,10.0,WNW,6.9,-,N/A,,Clear,300,2013-04-02 06:32:00
1:52 AM,25.3,16.7,70,30.26,10.0,WNW,6.9,-,N/A,,Clear,300,2013-04-02 06:52:00
2:12 AM,24.6,16.5,71,30.26,10.0,WNW,9.2,-,N/A,,Clear,300,2013-04-02 07:12:00
2:32 AM,24.6,16.7,72,30.26,10.0,West,4.6,-,N/A,,Clear,280,2013-04-02 07:32:00
2:52 AM,24.1,16.5,73,30.25,10.0,WNW,6.9,-,N/A,,Clear,290,2013-04-02 07:52:00
3:12 AM,23.9,16.3,73,30.26,10.0,WNW,5.8,-,N/A,,Clear,290,2013-04-02 08:12:00
3:33 AM,23.4,16.2,74,30.26,10.0,West,5.8,-,N/A,,Clear,280,2013-04-02 08:33:00
3:52 AM,23.4,16.2,74,30.25,10.0,WNW,5.8,-,N/A,,Clear,290,2013-04-02 08:52:00
4:12 AM,23.0,16.0,74,30.25,10.0,WNW,4.6,-,N/A,,Clear,290,2013-04-02 09:12:00
4:33 AM,22.8,15.8,74,30.26,10.0,WNW,5.8,-,N/A,,Clear,290,2013-04-02 09:33:00
4:52 AM,22.1,15.8,77,30.26,10.0,WNW,5.8,-,N/A,,Clear,300,2013-04-02 09:52:00
5:12 AM,22.1,15.8,77,30.26,10.0,WNW,4.6,-,N/A,,Clear,290,2013-04-02 10:12:00
5:33 AM,22.1,15.8,77,30.26,10.0,WNW,5.8,-,N/A,,Clear,300,2013-04-02 10:33:00
5:52 AM,22.1,15.8,77,30.26,10.0,WNW,5.8,-,N/A,,Clear,300,2013-04-02 10:52:00
6:12 AM,21.9,15.8,77,30.27,10.0,West,4.6,-,N/A,,Clear,270,2013-04-02 11:12:00
6:32 AM,21.2,15.6,79,30.27,10.0,West,3.5,-,N/A,,Clear,280,2013-04-02 11:32:00
6:52 AM,21.2,15.8,80,30.28,10.0,West,3.5,-,N/A,,Clear,280,2013-04-02 11:52:00
7:13 AM,21.2,15.8,80,30.29,10.0,West,3.5,-,N/A,,Clear,260,2013-04-02 12:13:00
7:32 AM,21.7,16.2,79,30.30,10.0,WNW,3.5,-,N/A,,Clear,290,2013-04-02 12:32:00
7:52 AM,22.8,16.7,77,30.30,10.0,WNW,3.5,-,N/A,,Clear,300,2013-04-02 12:52:00
8:13 AM,23.5,16.7,75,30.31,10.0,WNW,5.8,-,N/A,,Clear,290,2013-04-02 13:13:00
8:32 AM,24.4,16.9,73,30.32,10.0,NW,6.9,-,N/A,,Clear,310,2013-04-02 13:32:00
8:53 AM,25.7,17.2,70,30.32,10.0,NW,8.1,-,N/A,,Clear,310,2013-04-02 13:53:00
9:32 AM,27.1,15.3,61,30.32,10.0,WNW,9.2,-,N/A,,Clear,300,2013-04-02 14:32:00
9:53 AM,28.4,15.4,58,30.32,10.0,NNW,8.1,-,N/A,,Clear,330,2013-04-02 14:53:00
10:12 AM,28.9,14.9,56,30.32,10.0,NNW,9.2,16.1,N/A,,Clear,330,2013-04-02 15:12:00
10:33 AM,29.7,14.2,53,30.32,10.0,North,9.2,-,N/A,,Clear,350,2013-04-02 15:33:00
10:53 AM,30.7,15.3,53,30.32,10.0,NNW,12.7,-,N/A,,Clear,340,2013-04-02 15:53:00
11:12 AM,30.9,14.4,50,30.32,10.0,NW,11.5,-,N/A,,Clear,320,2013-04-02 16:12:00
11:33 AM,31.6,13.6,47,30.32,10.0,WNW,12.7,16.1,N/A,,Clear,300,2013-04-02 16:33:00
11:52 AM,32.0,13.5,46,30.32,10.0,WNW,9.2,18.4,N/A,,Clear,300,2013-04-02 16:52:00
12:12 PM,32.9,13.3,44,30.32,10.0,NW,12.7,16.1,N/A,,Clear,310,2013-04-02 17:12:00
12:32 PM,32.9,12.2,42,30.32,10.0,NW,10.4,-,N/A,,Clear,310,2013-04-02 17:32:00
12:52 PM,34.0,12.4,41,30.31,10.0,NW,9.2,16.1,N/A,,Clear,320,2013-04-02 17:52:00
1:13 PM,33.8,11.1,39,30.31,10.0,NW,8.1,17.3,N/A,,Clear,320,2013-04-02 18:13:00
1:32 PM,34.3,12.2,40,30.31,10.0,NW,10.4,-,N/A,,Clear,310,2013-04-02 18:32:00
1:53 PM,35.1,12.7,40,30.31,10.0,WNW,9.2,-,N/A,,Clear,300,2013-04-02 18:53:00
2:13 PM,35.1,13.6,41,30.31,10.0,NW,11.5,17.3,N/A,,Clear,310,2013-04-02 19:13:00
2:32 PM,34.9,12.6,40,30.31,10.0,North,11.5,-,N/A,,Scattered Clouds,360,2013-04-02 19:32:00
2:53 PM,35.8,12.6,38,30.30,10.0,WNW,8.1,16.1,N/A,,Scattered Clouds,290,2013-04-02 19:53:00
3:12 PM,35.8,12.9,39,30.30,10.0,NW,12.7,16.1,N/A,,Scattered Clouds,310,2013-04-02 20:12:00
3:32 PM,36.5,10.2,34,30.30,10.0,NNW,8.1,-,N/A,,Clear,340,2013-04-02 20:32:00
3:53 PM,36.7,10.0,33,30.30,10.0,NW,6.9,17.3,N/A,,Clear,310,2013-04-02 20:53:00
4:12 PM,37.0,9.3,32,30.30,10.0,NNW,10.4,16.1,N/A,,Clear,330,2013-04-02 21:12:00
4:33 PM,37.2,9.0,31,30.30,10.0,NW,9.2,-,N/A,,Clear,320,2013-04-02 21:33:00
4:47 PM,37.2,9.0,31,30.30,10.0,NW,6.9,-,N/A,,Clear,310,2013-04-02 21:47:00
5:19 PM,37.0,9.7,32,30.30,10.0,North,9.2,-,N/A,,Clear,10,2013-04-02 22:19:00
5:33 PM,37.0,10.6,34,30.31,10.0,NW,9.2,17.3,N/A,,Clear,320,2013-04-02 22:33:00
5:52 PM,36.7,9.7,33,30.31,10.0,NNW,8.1,-,N/A,,Clear,330,2013-04-02 22:52:00
6:12 PM,36.1,10.9,35,30.31,10.0,NNW,8.1,-,N/A,,Clear,330,2013-04-02 23:12:00
6:33 PM,35.8,10.8,36,30.31,10.0,North,4.6,-,N/A,,Clear,350,2013-04-02 23:33:00
6:52 PM,35.6,11.3,37,30.32,10.0,NNW,6.9,-,N/A,,Clear,340,2013-04-02 23:52:00
7:12 PM,35.1,12.2,39,30.32,10.0,North,4.6,-,N/A,,Clear,350,2013-04-03 00:12:00
7:33 PM,34.5,12.6,40,30.32,10.0,NNW,4.6,-,N/A,,Clear,330,2013-04-03 00:33:00
7:52 PM,34.0,12.2,41,30.32,10.0,North,4.6,-,N/A,,Clear,360,2013-04-03 00:52:00
8:13 PM,33.4,12.7,42,30.32,10.0,North,3.5,-,N/A,,Clear,360,2013-04-03 01:13:00
8:32 PM,33.3,12.2,42,30.32,10.0,North,3.5,-,N/A,,Clear,350,2013-04-03 01:32:00
8:52 PM,32.9,12.2,42,30.33,10.0,Calm,Calm,-,N/A,,Clear,0,2013-04-03 01:52:00
9:13 PM,32.0,14.2,48,30.34,10.0,Calm,Calm,-,N/A,,Clear,0,2013-04-03 02:13:00
9:32 PM,31.3,13.8,49,30.34,10.0,Calm,Calm,-,N/A,,Clear,0,2013-04-03 02:32:00
9:52 PM,30.9,14.9,52,30.35,10.0,Calm,Calm,-,N/A,,Clear,0,2013-04-03 02:52:00
10:13 PM,29.3,17.6,62,30.35,10.0,Calm,Calm,-,N/A,,Clear,0,2013-04-03 03:13:00
10:32 PM,28.8,17.4,63,30.35,10.0,West,3.5,-,N/A,,Clear,260,2013-04-03 03:32:00
10:52 PM,29.1,16.3,59,30.35,10.0,Calm,Calm,-,N/A,,Clear,0,2013-04-03 03:52:00
11:13 PM,28.0,17.4,64,30.35,10.0,Calm,Calm,-,N/A,,Clear,0,2013-04-03 04:13:00
11:32 PM,27.5,16.5,63,30.35,10.0,Calm,Calm,-,N/A,,Clear,0,2013-04-03 04:32:00
11:52 PM,27.5,15.8,61,30.35,10.0,Calm,Calm,-,N/A,,Clear,0,2013-04-03 04:52:00